Flag for Netherlands Weather past 2 weeks in Ede, Netherlands

Now
37 °F

Light rain. Cloudy.


Feels Like: 33 °F
Forecast: 35 / 44 °F
Wind: 6 mph from West

Location: Deelen

Current Time: Jan 25, 2015 at 1:36:34 PM

Latest Report: Jan 25, 2015 at 12:55 PM


Visibility: 3 mi

Pressure: 30.36 "Hg

Humidity: 100%

Dew point: 37 °F

Location of EdeLocation

Historic Weather in Ede — Graph

°F

Ede temperature yesterday

Maximum temperature yesterday: 41 °F (at 1:25 PM)
Minimum temperature yesterday: 27 °F (at 8:55 PM)
Average temperature yesterday: 32 °F

Past Weeks' High & Low Weather Summary

 TemperatureHumidityPressure
High54 °F (Jan 10, 12:25 PM)100% (Jan 12, 11:25 PM)30.39 "Hg (Jan 12, 11:25 PM)
Low21 °F (Jan 25, 3:25 AM)57% (Jan 10, 7:55 PM)29.33 "Hg (Jan 15, 1:25 PM)
Average37 °F88%29.89 "Hg
* Reported Jan 10 12:25 PM — Jan 25 12:25 PM, Ede, Weather by CustomWeather, © 2014

Note: Actual official high and low records may vary slightly from our data, if they occured in-between our weather recording intervals... More about our weather records

Advertising

Ede weather history for previous 24 hours

 ConditionsComfort  
Time TempWeatherWind HumidityBarometerVisibility
12:25 PM
Jan 25
37 °FDrizzle. Broken clouds.6 mph93%30.36 "Hg3 mi
11:55 AM37 °FLight rain. Broken clouds.6 mph93%30.36 "Hg3 mi
11:25 AM37 °FFog.7 mph93%30.36 "Hg4 mi
10:55 AM36 °FFog.6 mph100%30.36 "Hg4 mi
10:25 AM34 °FFog.1 mph100%30.39 "Hg3 mi
9:55 AM32 °FIce fog.2 mph100%30.36 "Hg3 mi
9:25 AM32 °FIce fog.2 mph100%30.39 "Hg3 mi
8:55 AM32 °FIce fog.1 mph93%30.36 "Hg4 mi
8:25 AM30 °FIce fog.No wind100%30.36 "Hg3 mi
7:55 AM32 °FIce fog.1 mph93%30.36 "Hg4 mi
7:25 AM30 °FIce fog.1 mph100%30.36 "Hg4 mi
6:55 AM30 °FIce fog.1 mph100%30.36 "Hg4 mi
6:25 AM28 °FIce fog.2 mph100%30.36 "Hg4 mi
5:55 AM28 °FIce fog.No wind100%30.36 "Hg6 mi
5:25 AM28 °FIce fog.1 mph100%30.36 "Hg6 mi
4:55 AM28 °FIce fog.1 mph100%30.33 "Hg3 mi
4:25 AM27 °FIce fog.No wind100%30.33 "Hg2 mi
3:55 AM25 °FIce fog.No wind100%30.33 "Hg1 mi
3:25 AM21 °FIce fog.1 mph100%30.33 "Hg0 mi
2:55 AM25 °FIce fog.1 mph100%30.33 "Hg3 mi
2:25 AM23 °FIce fog.1 mph100%30.33 "Hg3 mi
1:55 AM23 °FIce fog.2 mph100%30.33 "Hg3 mi
1:25 AM25 °FIce fog.1 mph93%30.33 "Hg6 mi
12:55 AM27 °FIce fog.1 mph100%30.33 "Hg2 mi
12:25 AM23 °FIce fog.2 mph100%30.30 "Hg1 mi
11:55 PM
Jan 24
27 °FIce fog.1 mph93%30.30 "Hg0 mi
11:25 PM28 °FIce fog.1 mph100%30.30 "Hg1 mi
10:55 PM27 °FIce fog.1 mph100%30.30 "Hg1 mi
10:25 PM28 °FIce fog.1 mph93%30.30 "Hg0 mi
9:55 PM28 °FIce fog.No wind100%30.30 "Hg0 mi
9:25 PM30 °FIce fog.1 mph100%30.27 "Hg1 mi
8:55 PM27 °FIce fog.No wind100%30.27 "Hg0 mi
8:25 PM30 °FIce fog.No wind100%30.27 "Hg4 mi
7:55 PM28 °FPassing clouds.2 mph100%30.27 "HgN/A
7:25 PM30 °FPassing clouds.1 mph93%30.24 "HgN/A
6:55 PM30 °FIce fog.3 mph100%30.24 "Hg2 mi
6:25 PM32 °FPassing clouds.2 mph93%30.21 "HgN/A
5:55 PM32 °FPassing clouds.3 mph93%30.21 "HgN/A
5:25 PM36 °FPassing clouds.3 mph93%30.18 "HgN/A
4:55 PM37 °FPassing clouds.6 mph87%30.18 "HgN/A
4:25 PM39 °FCloudy.7 mph81%30.15 "HgN/A
3:55 PM39 °FBroken clouds.7 mph87%30.12 "HgN/A
3:25 PM39 °FPassing clouds.9 mph87%30.12 "HgN/A
2:55 PM39 °FPassing clouds.9 mph87%30.09 "HgN/A
2:25 PM39 °FPassing clouds.7 mph87%30.09 "HgN/A
1:55 PM37 °FFog.5 mph87%30.09 "Hg5 mi
1:25 PM41 °FFog.5 mph93%30.07 "Hg4 mi
Weather by CustomWeather, © 2014

See weather overviewHow to use our weather pages